Wind_Speed
50 49 48 47 45 44 43 42 41 41 40 39 38 37 37 36 36 36 36 36 36 36 37 37 38 38 39 39 40 40 41 42 42 43 44 45 47 49 51 52 54 55 57
50 49 48 47 46 45 44 42 42 41 39 38 38 38 38 37 36 36 36 36 36 36 37 38 38 38 39 39 40 40 41 42 43 44 45 47 49 51 53 54 56 58 60
51 50 49 48 47 46 45 44 42 41 40 39 39 39 38 37 36 36 36 36 36 37 37 37 38 38 38 39 40 40 41 43 44 45 47 49 51 53 55 57 59 61 62
50 49 48 48 46 45 44 43 42 40 40 39 39 38 37 36 36 36 35 35 36 36 36 37 37 37 38 38 39 40 42 43 45 46 48 51 53 55 57 59 61 62 64
49 48 47 46 45 44 43 41 40 39 38 38 37 36 36 36 36 35 35 35 35 35 36 36 37 37 37 38 40 41 43 44 46 48 50 52 55 57 59 61 62 63 64
48 47 45 45 45 44 42 41 40 39 37 37 36 35 35 35 34 34 35 34 35 35 35 35 36 37 38 39 40 41 43 45 47 49 51 54 56 58 61 63 64 65 64
45 45 44 42 42 42 41 40 39 37 36 35 34 34 34 33 34 34 34 34 34 34 34 35 36 37 38 39 41 42 44 46 48 51 53 55 58 60 63 64 65 64 63
42 42 41 40 39 38 38 37 37 36 35 34 34 33 33 33 32 33 33 33 33 33 34 35 36 37 38 40 41 43 45 48 50 52 55 57 59 62 63 64 64 62 62
40 39 38 38 37 37 36 35 35 35 34 34 33 33 32 32 31 31 32 32 32 33 34 35 36 37 39 40 42 44 46 49 51 53 55 58 60 62 63 62 62 61 61
38 37 37 36 36 35 35 34 34 33 32 32 32 31 31 30 30 30 31 31 32 33 34 35 36 38 39 41 43 45 47 49 52 54 57 59 61 62 62 62 62 61 61
36 36 35 35 34 34 33 33 32 31 31 31 30 30 29 29 29 29 30 31 32 33 34 35 37 38 40 42 44 46 48 50 52 55 58 61 61 61 61 61 61 60 59
35 34 34 33 33 32 32 31 30 29 29 29 28 28 28 28 28 29 30 31 32 33 34 35 37 39 41 43 45 47 48 51 54 57 59 61 61 60 60 60 59 58 58
33 32 32 31 31 30 30 29 28 28 28 27 27 27 27 27 28 29 30 31 31 33 34 36 38 40 41 43 45 47 49 53 56 58 59 59 59 58 58 58 57 56 56
31 31 30 30 29 28 27 27 27 26 26 26 26 26 26 27 28 29 30 30 31 33 35 37 38 40 41 43 46 48 51 54 56 57 57 57 58 57 57 56 55 54 53
30 30 29 28 27 26 26 26 25 25 25 25 25 25 26 27 28 29 29 30 32 33 35 37 38 40 42 44 46 49 52 54 56 56 56 57 57 56 55 55 54 52 50
30 29 28 27 26 26 25 25 24 24 24 24 24 25 25 26 27 28 29 31 32 34 35 37 38 40 42 44 47 50 53 54 55 55 56 56 56 54 55 54 52 50 48
30 29 28 27 26 25 25 24 23 23 23 23 24 25 25 26 27 28 29 31 32 34 35 36 38 40 42 45 48 51 53 55 55 55 55 55 54 53 54 52 49 46 45
30 29 28 27 25 25 24 24 24 23 24 24 24 25 26 26 27 28 29 30 32 33 35 36 38 41 43 47 49 52 53 54 54 54 54 53 53 52 52 49 46 43 42
30 29 28 26 25 25 24 24 24 24 24 24 24 25 25 26 27 28 29 30 31 33 35 37 39 41 44 47 49 51 52 53 53 52 52 52 51 51 49 46 43 41 39
30 29 28 27 25 25 25 24 24 24 23 23 23 24 24 25 26 27 28 30 32 34 35 37 39 42 44 47 49 50 52 52 52 51 51 50 49 48 45 43 41 38 37
30 29 27 26 25 25 25 24 23 23 22 22 23 23 23 24 25 26 28 30 32 33 35 37 39 42 44 47 49 50 51 51 50 50 49 47 46 44 42 40 39 37 36
30 28 27 25 24 24 24 23 23 22 22 22 22 22 23 24 25 27 28 29 31 33 35 37 40 42 45 47 48 49 50 49 48 47 46 44 42 41 40 39 38 36 35
30 28 26 25 24 24 23 23 22 22 22 22 22 22 23 24 25 26 28 29 31 33 35 37 40 42 44 46 48 48 48 48 47 45 43 42 41 40 39 38 37 35 33
29 27 26 25 24 23 23 23 22 22 22 21 21 22 23 24 25 26 28 29 31 33 36 38 40 43 44 46 47 47 47 46 45 43 42 41 40 39 38 37 35 32 30
29 28 27 25 24 23 23 22 22 22 21 21 21 22 23 24 25 26 28 30 32 34 36 38 41 43 45 46 47 47 46 45 44 42 41 40 39 37 36 35 32 29 27
28 27 26 25 24 23 22 22 22 21 21 21 21 22 23 25 25 27 28 31 33 35 37 39 41 43 45 46 46 46 46 45 43 41 40 38 37 35 34 32 29 27 25
Wind_Direction
237 238 240 242 244 247 249 251 253 256 258 261 264 266 269 272 275 277 280 283 286 288 291 294 295 296 297 298 299 301 302 304 304 305 306 307 307 308 309 309 309 309 309
236 238 239 241 243 245 247 249 252 255 257 260 263 266 269 272 274 276 279 283 285 288 291 293 294 295 297 298 299 301 302 303 305 306 306 307 308 308 309 309 309 309 309
237 238 239 240 242 244 246 249 252 255 257 259 262 265 269 271 273 276 280 282 285 288 290 292 293 295 296 297 298 300 301 303 305 306 307 308 308 309 309 309 310 310 309
236 238 239 241 242 244 246 248 251 254 256 258 261 264 267 270 273 276 278 281 285 287 289 291 293 295 296 297 299 301 302 304 305 306 307 308 309 309 310 310 310 310 309
235 237 239 240 241 243 246 248 251 253 256 258 261 263 266 269 272 275 278 282 284 287 289 291 293 295 296 298 300 301 302 304 305 306 307 308 309 309 310 311 310 310 310
234 235 237 238 240 242 244 247 250 253 255 256 259 263 266 268 271 274 278 281 284 286 289 291 293 295 297 298 300 302 303 305 306 307 308 309 309 310 311 312 311 311 310
233 233 235 237 239 241 243 245 248 250 253 255 258 262 265 268 271 275 279 281 284 286 288 291 294 295 297 299 301 302 303 305 307 308 309 309 310 311 312 312 312 311 312
230 232 234 236 238 240 242 244 246 249 252 254 258 261 265 268 272 276 279 282 284 286 289 292 293 296 298 299 301 303 304 306 307 309 310 311 311 312 313 313 313 313 313
229 231 233 235 238 240 241 243 245 247 250 254 258 261 264 267 272 276 279 282 284 287 289 291 294 296 298 300 302 303 305 307 308 310 311 312 312 313 314 314 314 314 314
227 229 231 234 236 239 241 243 245 247 250 253 257 260 264 267 271 275 278 281 284 287 289 292 294 297 299 301 302 304 306 308 310 311 312 313 313 314 315 315 315 315 315
225 227 230 232 234 236 239 241 244 247 250 253 257 260 264 267 271 275 278 281 284 287 291 293 295 298 300 302 304 306 307 309 310 312 313 314 314 315 315 316 316 316 316
223 225 227 230 232 235 237 241 244 247 250 253 256 260 264 267 272 276 279 282 285 288 291 294 297 299 301 303 305 307 309 310 311 313 314 315 315 316 316 316 316 317 317
221 224 227 229 231 233 237 240 244 247 250 253 256 260 264 268 273 277 280 283 286 290 293 296 298 301 303 305 307 308 310 311 313 315 315 316 316 316 316 317 317 318 318
221 223 226 228 231 233 236 240 243 247 251 254 257 261 265 270 275 279 282 284 288 291 294 297 299 302 304 306 308 310 311 313 315 316 316 317 317 317 317 318 318 319 319
221 222 225 228 230 233 236 240 244 247 250 254 258 262 267 272 276 280 283 286 290 293 296 299 301 304 306 308 310 312 314 315 316 317 318 318 319 318 318 319 319 319 319
221 223 225 227 230 234 237 240 244 248 251 255 259 264 269 273 277 281 284 288 292 295 298 301 303 305 308 310 312 314 315 317 317 317 318 319 319 319 319 320 320 320 320
221 223 225 227 230 233 237 241 246 250 253 257 261 266 270 275 279 283 287 290 293 297 299 302 305 308 310 312 314 315 317 317 318 318 319 319 319 320 321 321 321 321 322
220 222 225 227 230 234 239 243 248 252 256 260 264 269 274 278 282 286 289 292 295 298 301 304 307 309 311 313 315 317 318 319 319 320 320 320 320 321 322 323 322 322 323
220 223 224 227 231 235 240 245 249 253 258 263 268 272 277 281 285 288 291 294 297 300 303 306 308 311 313 315 317 319 320 321 321 321 321 321 322 322 323 323 323 323 323
219 222 225 227 231 237 241 245 250 255 261 265 270 275 280 284 287 290 293 296 300 303 305 307 310 313 315 318 319 320 322 322 322 322 322 322 323 323 323 324 324 323 323
221 224 226 228 233 238 242 247 252 257 262 267 272 277 282 285 288 292 296 299 302 305 307 310 313 315 318 320 321 322 323 324 323 323 323 324 324 325 325 325 325 324 323
221 224 228 231 235 239 244 249 252 257 263 268 273 277 281 286 290 293 297 300 303 306 309 312 315 317 319 321 323 324 325 325 325 325 325 326 327 327 327 326 325 324 324
222 225 229 231 235 241 245 248 253 258 264 268 273 279 283 287 290 294 297 301 305 308 311 314 317 319 321 323 324 325 326 326 326 326 327 327 327 328 327 327 326 326 325
222 224 227 230 236 241 244 248 254 260 264 268 273 279 283 287 292 296 300 303 307 310 313 316 319 321 322 324 325 326 326 327 327 326 326 327 327 327 328 328 328 327 327
221 222 226 230 235 241 244 249 255 261 264 268 274 280 285 290 295 298 302 306 309 312 315 318 320 322 323 324 325 326 326 327 327 327 326 327 327 327 328 329 329 329 329
220 224 227 231 237 241 244 249 255 260 263 269 276 282 289 293 296 300 304 308 311 313 316 318 320 322 323 325 326 326 327 326 327 326 326 326 327 327 329 330 330 331 331
Height
5692 5698 5704 5709 5713 5717 5720 5724 5727 5729 5730 5732 5733 5734 5734 5735 5734 5734 5733 5731 5730 5728 5726 5724 5722 5718 5715 5712 5708 5704 5700 5696 5693 5688 5683 5677 5672 5666 5660 5653 5646 5639 5631
5683 5689 5694 5699 5704 5708 5711 5715 5717 5720 5722 5723 5724 5725 5726 5726 5726 5725 5725 5723 5722 5720 5718 5716 5713 5710 5707 5704 5700 5696 5692 5688 5683 5679 5674 5668 5662 5655 5649 5642 5634 5626 5618
5673 5679 5684 5689 5694 5699 5702 5706 5709 5711 5713 5715 5716 5717 5717 5717 5717 5717 5716 5715 5714 5712 5710 5707 5705 5702 5699 5695 5692 5688 5683 5679 5674 5669 5664 5658 5651 5644 5637 5630 5621 5613 5604
5663 5669 5674 5680 5685 5689 5693 5697 5699 5702 5704 5706 5707 5708 5709 5709 5709 5709 5708 5707 5706 5704 5702 5699 5696 5693 5690 5687 5683 5679 5675 5670 5665 5659 5653 5647 5641 5633 5625 5618 5610 5600 5591
5653 5659 5665 5671 5675 5679 5684 5687 5690 5693 5695 5697 5698 5699 5700 5700 5700 5700 5700 5698 5697 5695 5693 5691 5688 5685 5682 5678 5674 5670 5665 5660 5655 5649 5643 5637 5629 5622 5613 5605 5596 5587 5577
5643 5650 5655 5661 5666 5670 5674 5678 5681 5683 5686 5688 5689 5691 5692 5692 5692 5692 5691 5690 5688 5687 5685 5682 5680 5676 5673 5670 5665 5661 5656 5651 5645 5639 5633 5625 5617 5609 5601 5591 5581 5572 5564
5634 5640 5646 5651 5656 5661 5665 5669 5672 5675 5677 5679 5681 5682 5683 5684 5684 5683 5682 5681 5680 5679 5677 5674 5671 5668 5665 5661 5656 5652 5647 5641 5635 5629 5621 5613 5605 5597 5588 5578 5567 5556 5547
5625 5631 5637 5642 5647 5652 5656 5660 5663 5666 5669 5671 5673 5674 5675 5675 5675 5675 5674 5673 5672 5670 5668 5666 5663 5660 5656 5652 5647 5642 5637 5631 5625 5618 5610 5602 5592 5583 5573 5563 5552 5543 5533
5616 5623 5629 5634 5639 5643 5647 5651 5655 5658 5660 5663 5664 5666 5667 5667 5667 5667 5666 5665 5664 5662 5660 5658 5654 5651 5647 5643 5638 5633 5627 5621 5613 5606 5598 5589 5579 5569 5559 5549 5539 5530 5521
5609 5615 5621 5626 5631 5635 5639 5643 5646 5649 5652 5654 5656 5657 5658 5659 5659 5659 5658 5657 5656 5654 5652 5649 5646 5642 5638 5633 5629 5623 5617 5610 5603 5595 5586 5577 5567 5556 5546 5536 5527 5517 5507
5601 5607 5613 5618 5623 5627 5631 5635 5639 5642 5644 5646 5648 5649 5650 5651 5651 5651 5650 5649 5648 5646 5643 5640 5637 5633 5629 5624 5619 5613 5607 5600 5592 5584 5575 5565 5554 5544 5534 5524 5514 5504 5494
5594 5600 5605 5610 5615 5620 5624 5627 5631 5634 5636 5638 5640 5641 5642 5643 5643 5643 5642 5641 5639 5637 5634 5631 5628 5624 5619 5615 5609 5603 5596 5589 5581 5572 5563 5553 5542 5532 5522 5512 5502 5492 5482
5588 5593 5598 5603 5608 5612 5616 5620 5623 5626 5629 5631 5633 5634 5635 5635 5635 5635 5634 5633 5631 5628 5626 5622 5619 5614 5610 5605 5599 5592 5585 5578 5569 5560 5550 5541 5531 5521 5511 5501 5491 5481 5471
5581 5587 5592 5597 5601 5606 5610 5613 5617 5619 5622 5623 5625 5626 5627 5627 5627 5627 5626 5624 5622 5620 5617 5613 5609 5605 5600 5595 5589 5582 5575 5567 5558 5549 5539 5529 5519 5509 5500 5490 5481 5471 5462
5575 5581 5586 5591 5595 5599 5603 5607 5610 5612 5614 5616 5618 5619 5620 5620 5620 5619 5617 5616 5613 5611 5608 5604 5600 5596 5591 5585 5579 5572 5564 5555 5546 5537 5527 5518 5508 5498 5489 5480 5471 5462 5453
5570 5575 5580 5585 5589 5593 5597 5600 5602 5605 5607 5609 5611 5612 5612 5612 5611 5610 5609 5607 5605 5602 5599 5596 5591 5586 5581 5575 5569 5561 5553 5544 5535 5526 5516 5507 5497 5488 5479 5470 5461 5452 5444
5564 5569 5574 5579 5583 5587 5591 5594 5596 5599 5600 5602 5603 5604 5604 5604 5603 5602 5601 5599 5596 5594 5591 5587 5582 5577 5572 5566 5559 5551 5542 5533 5523 5514 5505 5496 5487 5478 5469 5460 5452 5444 5436
5557 5563 5568 5573 5577 5581 5584 5587 5590 5592 5594 5595 5596 5596 5596 5596 5595 5594 5592 5591 5588 5585 5582 5578 5573 5568 5562 5556 5548 5540 5531 5521 5512 5503 5494 5485 5476 5468 5460 5451 5443 5436 5429
5552 5557 5562 5567 5571 5574 5578 5581 5583 5585 5587 5588 5588 5589 5589 5588 5587 5586 5584 5583 5580 5577 5573 5569 5564 5559 5552 5545 5537 5529 5520 5511 5501 5492 5484 5475 5467 5458 5450 5443 5435 5429 5422
5546 5551 5556 5561 5565 5568 5572 5574 5576 5578 5579 5580 5581 5581 5581 5581 5580 5578 5577 5574 5572 5568 5565 5560 5555 5549 5543 5535 5527 5519 5510 5500 5491 5482 5474 5465 5457 5449 5442 5435 5428 5422 5416
5540 5545 5550 5555 5559 5562 5565 5567 5570 5571 5573 5573 5574 5574 5574 5573 5572 5571 5569 5566 5563 5560 5556 5551 5546 5540 5533 5525 5517 5509 5500 5491 5482 5473 5464 5456 5448 5441 5434 5428 5422 5416 5410
5534 5540 5544 5548 5552 5555 5558 5561 5563 5565 5566 5566 5567 5567 5566 5566 5565 5563 5561 5558 5555 5551 5547 5542 5537 5531 5524 5516 5508 5500 5491 5482 5473 5464 5456 5448 5441 5435 5428 5422 5416 5410 5404
5529 5534 5538 5542 5546 5549 5552 5554 5556 5558 5559 5559 5560 5560 5559 5559 5557 5555 5553 5550 5547 5543 5538 5533 5528 5522 5514 5507 5499 5491 5482 5474 5465 5457 5450 5442 5435 5429 5422 5416 5410 5404 5399
5523 5528 5532 5536 5540 5543 5546 5548 5550 5551 5552 5552 5553 5553 5552 5551 5549 5547 5545 5542 5538 5534 5530 5525 5519 5513 5506 5498 5490 5482 5474 5466 5458 5450 5443 5436 5429 5423 5417 5411 5405 5399 5394
5517 5522 5526 5530 5534 5537 5539 5541 5543 5544 5545 5546 5546 5546 5545 5544 5542 5540 5537 5534 5530 5526 5521 5516 5510 5504 5497 5490 5482 5474 5466 5458 5451 5444 5436 5430 5423 5417 5411 5405 5400 5394 5390
5511 5516 5520 5524 5528 5530 5533 5535 5537 5538 5538 5539 5539 5539 5538 5536 5535 5532 5529 5526 5522 5518 5513 5508 5502 5495 5488 5481 5473 5466 5458 5451 5444 5437 5430 5424 5418 5412 5406 5401 5396 5391 5386